This demonstration page uses our WeatherBlox Daily Observations layout. Learn more.

Left ArrowRight Arrow

34.16533, -84.80231

Hourly Observations for October 29, 2020

Temp ( °F °C ) Dew Point ( °F °C ) Humidity (%) Winds ( mph kmh ) Pressure ( in mb ) Visibility ( mi km ) Precip ( " mm )
12:53 am 00:53 Partly Cloudy with Light Rain 74 23.3 70 21.1 88 88 ESE 6 9 29.77 1008 10 16 0.02 0.51
1:09 am 01:09 Mostly Cloudy with Light Rain 74 23.3 70 21.1 88 88 SE 7 11 29.77 1008 10 16 0.00 0.00
1:53 am 01:53 Cloudy with Light Rain 74 23.3 70 21.1 88 88 VRB 7 11 29.72 1006 10 16 0.02 0.51
2:31 am 02:31 Cloudy with Light Rain 74 23.3 70 21.1 88 88 ESE 9 15 29.67 1005 10 16 0.03 0.76
2:53 am 02:53 Cloudy with Light Rain 74 23.3 70 21.1 88 88 SE 8 13 29.62 1003 5 8 0.10 2.54
3:12 am 03:12 Cloudy with Rain 74 23.3 70 21.1 88 88 SE 9 15 29.60 1003 4 6 0.10 2.54
3:26 am 03:26 Cloudy with Heavy Rain 74 23.3 70 21.1 88 88 ESE 12 19 29.57 1001 4 6 0.18 4.57
3:33 am 03:33 Cloudy with Heavy Rain 74 23.3 70 21.1 88 88 ESE 14 22 29.55 1001 3 5 0.23 5.84
3:53 am 03:53 Cloudy with Heavy Rain 73 22.8 69 20.6 87 87 ESE 12 19 29.47 998 3 4 0.37 9.40
4:11 am 04:11 Cloudy with Heavy Rain 73 22.8 69 20.6 87 87 ESE 14 22 29.40 995 3 4 0.16 4.06
4:16 am 04:16 Cloudy with Rain 73 22.8 68 20 84 84 E 22 35 29.36 994 3 5 0.18 4.57
4:32 am 04:32 Cloudy with Heavy Rain 73 22.8 69 20.6 87 87 S 20 31 29.36 994 2 3 0.33 8.38
4:48 am 04:48 Cloudy with Rain 73 23 70 21 89 89 S 26 43 29.35 994 3 5 0.40 10.16
4:53 am 04:53 Cloudy with Heavy Rain 73 22.8 69 20.6 87 87 S 28 44 29.38 995 3 4 0.44 11.18
5:12 am 05:12 Cloudy with Light Rain 74 23.3 70 21.1 88 88 S 22 35 29.39 995 5 8 0.07 1.78
5:53 am 05:53 Cloudy 76 24.4 71 21.7 85 85 S 26 43 29.41 996 10 16 0.11 2.79
6:53 am 06:53 undefined 78 25.6 69 20.6 74 74 SSW 14 22 29.54 1000 10 16 0.00 0.00
7:20 am 07:20 Cloudy 77 25 69 20.6 77 77 SW 8 13 29.59 1002 10 16 0.00 0.00
7:53 am 07:53 Cloudy 77 25 69 20.6 77 77 SSW 8 13 29.61 1003 10 16 0.00 0.00
8:53 am 08:53 Cloudy 75 23.9 69 20.6 82 82 undefined N/A 29.66 1004 10 16 0.00 0.00
9:53 am 09:53 Mostly Cloudy 77 25 70 21.1 79 79 VRB 5 7 29.67 1005 10 16 0.00 0.00
10:00 am 10:00 Mostly Cloudy 77 25 70 21.1 79 79 VRB 6 9 29.69 1005 10 16 0.00 0.00
10:08 am 10:08 Mostly Cloudy 77 25 70 21.1 79 79 VRB 6 9 29.69 1005 10 16 0.00 0.00
10:18 am 10:18 Mostly Cloudy 76 24.4 69 20.6 79 79 VRB 7 11 29.70 1006 10 16 0.00 0.00
10:53 am 10:53 Mostly Cloudy 77 25 69 20.6 77 77 VRB 3 6 29.68 1005 10 16 0.00 0.00
11:53 am 11:53 Cloudy 77 25 69 20.6 77 77 VRB 5 7 29.68 1005 10 16 0.00 0.00
12:12 pm 12:12 Cloudy 78 25.6 69 20.6 74 74 VRB 3 6 29.68 1005 10 16 0.00 0.00
12:22 pm 12:22 Mostly Cloudy 79 26.1 69 20.6 72 72 VRB 7 11 29.68 1005 10 16 0.00 0.00
12:29 pm 12:29 Mostly Cloudy 79 26.1 68 20 69 69 VRB 5 7 29.68 1005 10 16 0.00 0.00
12:44 pm 12:44 Mostly Cloudy 79 26.1 68 20 69 69 S 8 13 29.67 1005 10 16 0.00 0.00
12:53 pm 12:53 Mostly Cloudy 80 26.7 68 20 67 67 VRB 7 11 29.65 1004 10 16 0.00 0.00
1:53 pm 13:53 Mostly Sunny 81 27.2 66 18.9 61 61 undefined N/A 29.62 1003 10 16 0.00 0.00
2:53 pm 14:53 Partly Cloudy 82 27.8 63 17.2 53 53 SSW 8 13 29.58 1002 10 16 0.00 0.00
3:53 pm 15:53 Partly Cloudy 80 26.7 62 16.7 54 54 VRB 5 7 29.58 1002 10 16 0.00 0.00
4:53 pm 16:53 Sunny 79 26.1 55 12.8 44 44 SSW 9 15 29.58 1002 10 16 0.00 0.00
5:53 pm 17:53 Mostly Sunny 75 23.9 53 11.7 46 46 VRB 5 7 29.60 1002 10 16 0.00 0.00
6:53 pm 18:53 Clear 70 21.1 52 11.1 53 53 Calm 29.62 1003 10 16 0.00 0.00
7:53 pm 19:53 Mostly Cloudy 68 20 48 8.9 49 49 WSW 9 15 29.67 1005 10 16 0.00 0.00
8:53 pm 20:53 Cloudy 59 15 43 6.1 56 56 VRB 7 11 29.77 1008 10 16 0.00 0.00
9:53 pm 21:53 Partly Cloudy 54 12.2 39 3.9 57 57 VRB 6 9 29.82 1010 10 16 0.00 0.00
10:53 pm 22:53 Partly Cloudy 52 11.1 39 3.9 61 61 VRB 3 6 29.83 1010 10 16 0.00 0.00
11:30 pm 23:30 Mostly Cloudy 52 11.1 41 5 66 66 Calm 29.91 1013 10 16 0.00 0.00
11:53 pm 23:53 Cloudy 52 11.1 42 5.6 69 69 undefined N/A 29.88 1012 10 16 0.00 0.00

Powered by AerisWeather